Custer, SD

7:30 AM MST on February 12, 2016 (GMT -0700)
Custer County

Weather History for KCUT - February, 2013

Change the Weather History Date:

Thursday, February 28, 2013

  Actual Average Record
Temperature  
Mean Temperature 25 °F 28 °F  
Max Temperature 34 °F 39 °F 61 °F (1980)
Min Temperature 15 °F 17 °F -34 °F (1962)
Degree Days  
Heating Degree Days 40 37  
Month to date heating degree days 1133 1100  
Since 1 July heating degree days 5542 5835  
Cooling Degree Days 0 0  
Month to date cooling degree days 0 0  
Year to date cooling degree days 0 0  
Moisture  
Dew Point 14 °F    
Average Humidity 58    
Maximum Humidity 80    
Minimum Humidity 35    
Precipitation  
Precipitation T in 0.02 in 0.34 in (2004)
Month to date precipitation 0.13 0.53  
Year to date precipitation 0.93 0.86  
Sea Level Pressure  
Sea Level Pressure 30.19 in    
Wind  
Wind Speed 7 mph (WNW)    
Max Wind Speed 21 mph    
Max Gust Speed 29 mph    
Visibility 8 miles    
Events Snow    
T = Trace of Precipitation, MM = Missing Value Source: NWS Daily Summary

Daily Weather History Graph

Daily Weather History Graph

Search for Another Location

Airport or City:

Trip Planner

Search our weather history database for the weather conditions in past years. The results will help you decide how hot, cold, wet, or windy it might be!

Date:

Astronomy

Feb. 28, 2013 Rise Set
Actual Time 6:32 AM MST 5:42 PM MST
Civil Twilight 6:03 AM MST 6:11 PM MST
Nautical Twilight 5:30 AM MST 6:44 PM MST
Astronomical Twilight 4:56 AM MST 7:17 PM MST
Moon 9:20 PM MST (2/28) 7:35 AM MST (2/28)
Length of Visible Light 12h 07m
Length of Day
11h 09m
Waning Gibbous, 90% of the Moon is Illuminated
Feb 28
Waning Gibbous
Mar 4
Last Quarter
Mar 11
New
Mar 19
First Quarter
Mar 27
Full

Hourly Weather History & Observations

Time (MST) Temp. Windchill Dew Point Humidity Pressure Visibility Wind Dir Wind Speed Gust Speed Precip Events Conditions
12:53 AM 17.1 °F 8.7 °F 10.9 °F 77% 30.22 in 10.0 mi WSW 5.8 mph - N/A   Clear
1:53 AM 17.1 °F - 12.0 °F 81% 30.22 in 10.0 mi Calm Calm - N/A   Clear
2:53 AM 19.0 °F 11.1 °F 10.0 °F 68% 30.19 in 10.0 mi WNW 5.8 mph - N/A   Clear
3:53 AM 21.9 °F 12.5 °F 9.0 °F 58% 30.18 in 10.0 mi NW 8.1 mph - N/A   Clear
4:53 AM 23.0 °F 15.8 °F 9.0 °F 55% 30.20 in 10.0 mi NW 5.8 mph - N/A   Clear
5:53 AM 21.9 °F 15.7 °F 9.0 °F 58% 30.22 in 10.0 mi NW 4.6 mph - N/A   Clear
6:53 AM 21.9 °F 13.4 °F 12.0 °F 66% 30.22 in 10.0 mi WNW 6.9 mph - N/A   Scattered Clouds
7:53 AM 26.1 °F 19.4 °F 14.0 °F 60% 30.22 in 10.0 mi NW 5.8 mph - N/A   Partly Cloudy
8:53 AM 28.0 °F 18.6 °F 15.1 °F 58% 30.22 in 10.0 mi WNW 10.4 mph 18.4 mph N/A   Partly Cloudy
9:53 AM 28.9 °F 20.4 °F 12.9 °F 51% 30.23 in 10.0 mi NNW 9.2 mph 25.3 mph N/A   Mostly Cloudy
10:53 AM 33.1 °F 24.9 °F 10.9 °F 40% 30.22 in 10.0 mi NNW 10.4 mph 19.6 mph 0.00 in   Scattered Clouds
11:53 AM 30.9 °F 22.8 °F 10.9 °F 43% 30.22 in 10.0 mi NNW 9.2 mph 17.3 mph N/A   Overcast
12:53 PM 28.0 °F 16.5 °F 16.0 °F 61% 30.23 in 3.0 mi WNW 15.0 mph 25.3 mph 0.00 in Snow Light Snow
1:00 PM 28.4 °F 21.2 °F 15.8 °F 59% 30.08 in 2.5 mi Variable 6.9 mph 20.7 mph 0.00 in Snow Light Snow
1:07 PM 30.2 °F 21.9 °F 15.8 °F 55% 30.08 in 6.0 mi WNW 9.2 mph 17.3 mph 0.00 in Snow Light Snow
1:53 PM 33.1 °F 23.4 °F 10.9 °F 40% 30.19 in 10.0 mi WNW 13.8 mph 21.9 mph 0.00 in   Mostly Cloudy
2:53 PM 34.0 °F 24.6 °F 10.0 °F 37% 30.18 in 10.0 mi WNW 13.8 mph 26.5 mph N/A   Mostly Cloudy
3:53 PM 34.0 °F 26.0 °F 9.0 °F 35% 30.17 in 10.0 mi West 10.4 mph - N/A   Mostly Cloudy
4:53 PM 30.0 °F 19.5 °F 10.0 °F 43% 30.19 in 10.0 mi West 13.8 mph - N/A   Overcast
5:53 PM 28.0 °F 20.8 °F 15.1 °F 58% 30.23 in 10.0 mi NW 6.9 mph 16.1 mph N/A   Overcast
6:53 PM 26.1 °F 18.4 °F 18.0 °F 71% 30.25 in 10.0 mi WNW 6.9 mph - N/A   Mostly Cloudy
7:32 PM 26.6 °F 22.6 °F 17.6 °F 69% 30.12 in 7.0 mi WNW 3.5 mph - 0.00 in Snow Light Snow
7:40 PM 26.6 °F 19.1 °F 19.4 °F 74% 30.12 in 9.0 mi WNW 6.9 mph - 0.00 in   Overcast
7:46 PM 26.6 °F 21.2 °F 19.4 °F 74% 30.12 in 2.5 mi NW 4.6 mph - 0.00 in Snow Light Snow
7:53 PM 25.0 °F - 19.9 °F 81% 30.24 in 1.0 mi Calm Calm - 0.00 in Snow Light Snow
8:20 PM 24.8 °F - 21.2 °F 86% 30.11 in 3.0 mi Calm Calm - 0.00 in Snow Light Snow
8:39 PM 23.0 °F 18.4 °F 19.4 °F 86% 30.11 in 10.0 mi West 3.5 mph - 0.00 in   Scattered Clouds
8:53 PM 21.9 °F 17.2 °F 19.9 °F 92% 30.25 in 10.0 mi WNW 3.5 mph - 0.00 in   Clear
9:53 PM 23.0 °F 17.0 °F 15.1 °F 72% 30.24 in 10.0 mi NNW 4.6 mph - N/A   Clear
10:53 PM 21.9 °F 15.7 °F 15.1 °F 75% 30.25 in 10.0 mi WNW 4.6 mph - N/A   Clear
11:53 PM 21.0 °F - 14.0 °F 74% 30.25 in 10.0 mi Calm Calm - N/A   Clear